[[{"header":{"parameterUnit":"m.s-1","parameterCategory":1,"la1":30.2991,"la2":30.254,"lo1":-89.0895,"lo2":-89.0444,"dy":0.0017,"dx":0.0017,"nx":28,"ny":28,"refTime":"2024-03-20T03:00:00:Z","depth":0,"parameterNumber":2,"parameterNumberName":"U-component_of_WINDS"},"data":[0,0,0,0,0,0,0,0,0,0,0,0,0,0,0,0,0,0,0,0,0,0,0,0,0,0,0,0,0,0,0,0,0,0,0,0,0,0,0,0,0,0,0,0,0,0,0,0,0,0,0,0,0,0,0,0,0,0,3.6672,3.6673,0,3.6826,3.6828,3.683,3.6814,3.6812,3.681,3.6807,3.6965,3.6971,3.6978,0,0,0,0,0,0,0,0,0,0,0,0,0,3.636,3.6366,3.6671,3.6673,3.6675,3.6826,3.6828,3.683,3.6815,3.6812,3.6809,3.6806,3.6963,3.697,3.6978,0,0,0,0,0,0,0,0,0,0,0,0,0,3.6503,3.6368,3.6671,3.6686,3.6689,3.6825,3.6828,3.6831,3.6815,3.6812,3.6808,3.6805,3.696,3.697,3.6979,3.7111,0,0,3.7009,3.7013,0,0,0,0,0,0,0,0,3.6495,3.6515,3.6682,3.6685,3.6689,3.6797,3.6776,3.6925,3.6816,3.6767,3.6807,3.6803,3.6912,3.6925,3.6962,3.7118,3.7125,3.701,3.7015,3.702,3.7022,0,0,0,0,0,0,0,3.6485,3.6508,3.6733,3.6684,3.6688,3.6684,3.67,3.6804,3.6858,3.6771,3.6771,3.6789,3.6913,3.6953,3.6966,3.7127,3.7009,3.7018,3.7024,3.7028,3.7395,3.7399,0,0,0,0,0,0,3.6472,3.65,3.6728,3.6737,3.6581,3.6692,3.6711,3.6766,3.6857,3.6867,3.6792,3.6788,3.6938,3.6955,3.6971,3.7128,3.7019,3.7029,3.7034,3.7391,3.7396,3.74,0,0,0,0,0,0,3.6465,3.6493,3.6721,3.6618,3.6647,3.6702,3.6764,3.6771,3.6811,3.6873,3.6882,3.6823,3.6936,3.6958,3.7075,3.7134,3.7033,3.7042,3.7387,3.7393,3.7398,3.7445,0,0,0,0,0,0,3.6457,3.649,3.6542,3.662,3.6653,3.6824,3.6768,3.6777,3.6828,3.6824,3.6904,3.6914,3.6935,3.7061,3.7085,3.7145,3.7049,3.7381,3.7389,3.7396,3.7439,3.7452,3.7464,0,0,0,0,0,3.6446,3.6549,3.6544,3.6572,3.6718,3.6827,3.6846,3.6869,3.6832,3.6884,3.6923,3.6911,3.7124,3.7073,3.71,3.7164,3.7378,3.7387,3.7396,3.7433,3.745,3.7464,0,0,0,0,0,0,3.6477,3.656,3.6555,3.6688,3.6751,3.6825,3.689,3.6886,3.696,3.6953,3.6977,3.6996,3.7113,3.7151,3.7093,3.7294,3.7246,3.7261,3.7265,3.7281,3.7294,3.7281,3.7057,0,0,0,0,0,3.65,3.6582,3.665,3.676,3.6792,3.6836,3.6884,3.6896,3.6962,3.6988,3.7036,3.71,3.7181,3.7234,3.7312,3.7445,3.746,3.7502,3.7514,3.7524,3.7536,3.7605,3.7624,3.743,3.743,3.7429,0,0,3.6547,3.6602,3.6653,3.6768,3.6818,3.6901,3.6858,3.6949,3.701,3.7002,3.7115,3.7152,3.7225,3.735,3.7408,3.7385,3.7593,3.7536,3.7543,3.755,3.7617,3.7635,3.7651,3.7436,3.7435,3.7434,0,0,3.6674,3.6726,3.6822,3.6872,3.6948,3.6976,3.6999,3.7074,3.7098,3.7212,3.7206,3.728,3.742,3.7471,3.7515,3.766,3.765,3.7685,3.7749,3.7816,3.7831,3.7845,3.7893,3.7911,3.7697,3.7697,3.7697,0,3.6723,3.6849,3.6871,3.6962,3.7011,3.7008,3.7103,3.7151,3.7249,3.7283,3.7256,3.7429,3.7479,3.7614,3.7648,3.7686,3.7711,3.7674,3.7828,3.7841,3.7854,3.7901,3.7919,3.77,3.77,3.7699,3.7699,0,3.6903,3.699,3.7059,3.7152,3.7209,3.7302,3.7337,3.7393,3.7399,3.7429,3.7544,3.7603,3.7691,3.7724,3.7732,3.786,3.7843,3.7822,3.7773,3.7876,3.7919,3.7938,3.7705,3.7704,3.7703,3.7702,0,0,3.7055,3.7158,3.7182,3.7223,3.7306,3.7373,3.7465,3.7551,3.7596,3.7664,3.7739,3.7857,3.7837,3.7887,3.7901,3.7961,3.8067,3.7932,3.7934,3.7952,3.8207,3.822,3.824,3.8062,3.8066,3.8069,3.82,0,3.7188,3.735,3.7372,3.7516,3.7594,3.7591,3.767,3.7729,3.776,3.783,3.7864,3.7945,3.7915,3.7945,3.8004,3.8041,3.8118,3.8033,3.8131,3.8134,3.8109,3.8264,3.8279,3.8399,3.8217,3.822,3.8223,0,3.7366,3.7436,3.7587,3.7655,3.7689,3.7761,3.7839,3.7908,3.7973,3.7991,3.8046,3.8052,3.8145,3.8094,3.8221,3.8162,3.8204,3.8228,3.8233,3.8241,3.8182,3.8272,3.8439,3.8456,3.825,3.8248,3.8246,0,3.7456,3.759,3.7696,3.7732,3.7816,3.7865,3.7902,3.7964,3.8013,3.8083,3.8114,3.8194,3.8237,3.8297,3.8323,3.8284,3.8447,3.84,3.8463,3.8462,3.8495,3.8492,3.8667,3.8527,3.8527,3.8527,3.8526,0,3.7601,3.7693,3.7737,3.7803,3.7904,3.7928,3.8028,3.8063,3.8118,3.8188,3.8192,3.8258,3.8289,3.836,3.8381,3.8481,3.8501,3.8517,3.852,3.8515,3.8512,3.854,3.8531,3.8532,3.853,3.853,3.8529,0,3.7719,3.7754,3.7869,3.7938,3.7958,3.8029,3.8088,3.815,3.818,3.8269,3.8291,3.8338,3.842,3.8453,3.8555,3.8569,3.8683,3.8682,3.866,3.8661,3.8721,3.8713,3.8917,3.8944,3.8789,3.8791,3.8792,0,3.7808,3.7878,3.7954,3.8002,3.804,3.8117,3.8167,3.8193,3.8244,3.8322,3.8374,3.8457,3.8524,3.8657,3.8699,3.8776,3.8775,3.8841,3.8786,3.8777,3.8772,3.8766,3.8771,3.885,3.8852,3.8853,3.8854,0,3.7961,3.7973,3.8045,3.8122,3.8181,3.8243,3.8304,3.8342,3.8377,3.8434,3.8519,3.8571,3.8674,3.8755,3.8834,3.8871,3.8867,3.8871,3.8889,3.8882,3.8866,3.8872,3.8684,3.8866,3.8865,3.8864,3.8863,3.8863,3.8065,3.8125,3.8187,3.8266,3.8314,3.837,3.843,3.8467,3.8538,3.8623,3.8634,3.8724,3.8785,3.889,3.8931,3.9001,3.8983,3.901,3.9016,3.9022,3.9024,3.8857,3.9016,3.9015,3.9015,3.9015,3.9015,0,3.8214,3.8254,3.8326,3.8409,3.8471,3.8463,3.8528,3.858,3.8659,3.8716,3.8782,3.8877,3.8955,3.9003,3.9081,3.9127,3.9127,3.9146,3.9141,3.9149,3.9037,3.9012,3.9144,3.9144,3.9144,3.9144,3.9144,3.9144,3.8299,3.84,3.842,3.8543,3.8582,3.8669,3.8707,3.8757,3.8803,3.8909,3.8973,3.9004,3.9057,3.9138,3.9209,3.9221,3.9248,3.9268,3.9278,3.9171,3.9158,3.9145,3.9121,3.9274,3.9274,3.9384,3.9385,3.9385]},{"header":{"parameterUnit":"m.s-1","parameterCategory":1,"la1":30.2991,"la2":30.254,"lo1":-89.0895,"lo2":-89.0444,"dy":0.0017,"dx":0.0017,"nx":28,"ny":28,"refTime":"2024-03-20T03:00:00:Z","depth":0,"parameterNumber":3,"parameterNumberName":"V-component_of_WINDS"},"data":[0,0,0,0,0,0,0,0,0,0,0,0,0,0,0,0,0,0,0,0,0,0,0,0,0,0,0,0,0,0,0,0,0,0,0,0,0,0,0,0,0,0,0,0,0,0,0,0,0,0,0,0,0,0,0,0,0,0,0.4778,0.4777,0,0.4736,0.4735,0.4735,0.4686,0.4685,0.4685,0.4684,0.4643,0.4642,0.4642,0,0,0,0,0,0,0,0,0,0,0,0,0,0.4817,0.4816,0.4778,0.4777,0.4777,0.4736,0.4735,0.4735,0.4686,0.4685,0.4684,0.4684,0.4643,0.4642,0.4642,0,0,0,0,0,0,0,0,0,0,0,0,0,0.479,0.4816,0.4778,0.4748,0.4745,0.4736,0.4735,0.4735,0.4686,0.4685,0.4684,0.4683,0.4643,0.4642,0.4642,0.466,0,0,0.464,0.464,0,0,0,0,0,0,0,0,0.4791,0.4788,0.4753,0.475,0.4746,0.4715,0.4734,0.471,0.4687,0.4709,0.4684,0.4683,0.4668,0.4665,0.466,0.4658,0.4656,0.464,0.4639,0.4639,0.4639,0,0,0,0,0,0,0,0.4793,0.479,0.4761,0.4752,0.4748,0.4736,0.4731,0.4729,0.4695,0.4707,0.4703,0.4699,0.4666,0.466,0.4658,0.4656,0.464,0.4639,0.4639,0.4639,0.4665,0.4666,0,0,0,0,0,0,0.48,0.4792,0.4763,0.476,0.4766,0.4736,0.4731,0.4726,0.4695,0.4689,0.47,0.4696,0.4662,0.4659,0.4657,0.4675,0.4639,0.4639,0.4638,0.4664,0.4666,0.4667,0,0,0,0,0,0,0.4801,0.4797,0.4764,0.4775,0.477,0.4737,0.4732,0.4726,0.472,0.4689,0.4683,0.47,0.4661,0.4658,0.4659,0.4673,0.4638,0.4638,0.4663,0.4665,0.4666,0.4713,0,0,0,0,0,0,0.4802,0.4798,0.4805,0.4775,0.4769,0.4768,0.4733,0.4726,0.4719,0.4715,0.4688,0.4683,0.466,0.466,0.4659,0.4672,0.4637,0.4662,0.4664,0.4666,0.471,0.4716,0.4721,0,0,0,0,0,0.4803,0.4821,0.4806,0.4802,0.4777,0.4769,0.4765,0.4738,0.4721,0.4727,0.4707,0.4684,0.4672,0.4661,0.4658,0.4672,0.4661,0.4663,0.4666,0.4708,0.4715,0.4721,0,0,0,0,0,0,0.4854,0.4816,0.4799,0.4807,0.4791,0.476,0.4768,0.4746,0.4736,0.4732,0.4699,0.4693,0.4698,0.4685,0.4674,0.4687,0.4663,0.4665,0.4696,0.4702,0.4708,0.4711,0.4637,0,0,0,0,0,0.4866,0.4862,0.4829,0.4839,0.4832,0.4801,0.4797,0.4776,0.4759,0.4752,0.4732,0.4716,0.4709,0.4705,0.4696,0.4707,0.4701,0.4715,0.4721,0.4725,0.4728,0.4732,0.4737,0.4675,0.4675,0.4675,0,0,0.4891,0.487,0.4869,0.4849,0.4834,0.4831,0.4796,0.4794,0.4791,0.4752,0.4752,0.4737,0.4717,0.4723,0.4725,0.4712,0.4743,0.4728,0.4732,0.4732,0.4735,0.4741,0.4746,0.4676,0.4676,0.4676,0,0,0.4934,0.4918,0.4924,0.491,0.4887,0.4866,0.4868,0.4839,0.4827,0.4826,0.4796,0.4792,0.478,0.4767,0.4758,0.4794,0.4772,0.4792,0.4821,0.4825,0.483,0.4835,0.4847,0.4852,0.4794,0.4795,0.4795,0,0.4969,0.4962,0.493,0.493,0.4921,0.4884,0.489,0.4877,0.4854,0.4849,0.4834,0.4817,0.4801,0.4803,0.4811,0.4806,0.4806,0.4796,0.4832,0.4836,0.484,0.4851,0.4856,0.4797,0.4797,0.4797,0.4796,0,0.5004,0.5,0.5007,0.4984,0.4976,0.4979,0.4948,0.4944,0.4923,0.4904,0.4903,0.4882,0.4868,0.4866,0.4847,0.4865,0.4858,0.4838,0.4814,0.4849,0.4859,0.4863,0.4801,0.48,0.4799,0.4798,0,0,0.5081,0.5038,0.5042,0.503,0.5001,0.4997,0.4998,0.4983,0.4979,0.4964,0.4963,0.4952,0.4933,0.4924,0.4902,0.4906,0.4935,0.4886,0.4885,0.4895,0.4952,0.4967,0.4973,0.4919,0.492,0.4921,0.4954,0,0.5119,0.5117,0.5088,0.5094,0.5089,0.5053,0.5053,0.5035,0.5016,0.5009,0.4988,0.4981,0.4957,0.4951,0.4952,0.4931,0.4946,0.4928,0.4918,0.4919,0.4925,0.4978,0.4995,0.5027,0.4957,0.4958,0.4959,0,0.5165,0.515,0.5156,0.5125,0.5122,0.5123,0.5106,0.5099,0.5078,0.5064,0.5052,0.5027,0.5025,0.5001,0.4997,0.4985,0.4979,0.4968,0.4968,0.4967,0.4941,0.4978,0.5037,0.5042,0.4965,0.4964,0.4964,0,0.522,0.5201,0.5202,0.5193,0.5158,0.5159,0.5144,0.5122,0.5114,0.5099,0.5093,0.5079,0.5071,0.506,0.5031,0.5016,0.503,0.5004,0.5018,0.5019,0.5024,0.5024,0.5082,0.502,0.502,0.5019,0.5019,0,0.5266,0.5271,0.5226,0.5226,0.523,0.5196,0.5201,0.5182,0.5162,0.5158,0.5125,0.5122,0.5085,0.5077,0.5055,0.5055,0.5051,0.504,0.5034,0.5043,0.5044,0.5039,0.5036,0.5021,0.502,0.502,0.502,0,0.5329,0.5299,0.5297,0.5262,0.5254,0.5258,0.5229,0.5228,0.5206,0.5201,0.5198,0.5164,0.5153,0.5123,0.5105,0.509,0.5096,0.5085,0.5103,0.5099,0.5115,0.5114,0.5173,0.5178,0.5112,0.5113,0.5113,0,0.5361,0.5363,0.5329,0.5323,0.531,0.5301,0.5293,0.5258,0.5251,0.5225,0.5227,0.5213,0.5201,0.5185,0.5159,0.5144,0.5133,0.5154,0.5131,0.5139,0.5133,0.5133,0.5133,0.516,0.516,0.5161,0.5162,0,0.5421,0.5405,0.5394,0.5377,0.5367,0.5352,0.5335,0.5333,0.5294,0.5287,0.5275,0.5265,0.5245,0.5232,0.5213,0.5198,0.5173,0.5169,0.5172,0.5181,0.5192,0.5186,0.5117,0.5168,0.5168,0.5167,0.5167,0.5167,0.5469,0.5469,0.5444,0.5432,0.5415,0.54,0.5396,0.5373,0.5362,0.5343,0.5324,0.5314,0.529,0.5262,0.5248,0.5239,0.5227,0.5231,0.5232,0.5233,0.5237,0.5192,0.5236,0.5236,0.5235,0.5235,0.5235,0,0.5527,0.5508,0.5497,0.5474,0.5464,0.5441,0.542,0.5414,0.5405,0.5385,0.5373,0.5358,0.5345,0.5316,0.53,0.5298,0.5287,0.5295,0.5295,0.5292,0.525,0.5249,0.5305,0.5305,0.5305,0.5305,0.5305,0.5305,0.5556,0.5554,0.5535,0.5525,0.5506,0.5495,0.5486,0.5471,0.5455,0.544,0.5428,0.5409,0.5385,0.5366,0.5352,0.5344,0.534,0.5352,0.5341,0.5302,0.5295,0.5289,0.5288,0.5352,0.5352,0.5384,0.5384,0.5384]}]]